Location: Vihti�l�
(61.3833°N, 23.0667°E)
Time: 03:43:11
(UTC+00:00)

Meteor PRIRODA - Pass Details

Date: 29 November 2020
Orbit: 489 x 510 km, 97.6° (Epoch: 19 January)

Event Time Altitude Azimuth Distance (km) Brightness Sun altitude
Rises 04:26:44 0° 16° (NNE) 2,636 7.3 -17.6°
Reaches altitude 10° 04:28:50 10° 15° (NNE) 1,747 6.4 -17.3°
Maximum altitude 04:32:35 76° 290° (WNW) 535 3.5 -16.9°
Drops below altitude 10° 04:36:20 10° 205° (SSW) 1,736 6.3 -16.5°
Sets 04:38:25 0° 203° (SSW) 2,618 7.2 -16.2°
